カタログに戻る

VINDLER 2.1

運用中科学SSO
NORAD 68488·PAYLOAD·🇺🇸 United States

打ち上げ Mar 30, 2026 から Vandenberg Space Force Base

Loading…

次のパス (今後24時間)

TLE

最新Source: Space-Track

元期: Sep 13, 2026, 15:07 UTC

1 68488U 26067CA  26256.63049208  .00001391  00000-0  14201-3 0  9993
2 68488  97.7663 213.5618 0002602  96.6720 263.4796 14.92220553 24916

AllMySatでVINDLER 2.1をリアルタイム追跡

Download on the App Store